Location: Kalberh�ni
(46.4610°N, 7.2453°E)
Time: 05:17:04
(UTC+00:00)

Cosmos 1802 Rocket - Pass Details

Date: 28 October 2021
Orbit: 955 x 1010 km, 82.9° (Epoch: 05 December)

Event Time Altitude Azimuth Distance (km) Brightness Sun altitude
Rises 18:33:17 0° 179° (S) 3,619 6.9 -23.1°
Reaches altitude 10° 18:35:46 10° 177° (S) 2,677 6.2 -23.6°
Maximum altitude 18:41:50 71° 95° (E) 1,011 3.8 -24.6°
Drops below altitude 10° 18:48:00 10° 13° (NNE) 2,710 6.3 -25.7°
Sets 18:50:31 0° 11° (N) 3,666 7.0 -26.1°
